• en Belgique
  • Liste des pays
  • À 7 jours
  • Température de l'eau
  • Carte satellitaire
  • Carte météo
  • Widgets météo
  • user-avatar
    Se connecter

    Météo par heure à Сhiang Mai

    Ce jour, 20 Septembre, Jeudi

    Heure Température Précipitation Vent Pression Humidité
    00:00 +23°C° 0.4 mm 0 m/s 731 mmHg 95%
    01:00 +23°C° 0.4 mm 0 m/s 731 mmHg 96%
    02:00 +22°C° 0.3 mm 0 m/s 731 mmHg 96%
    03:00 +22°C° 0.3 mm 0 m/s 731 mmHg 96%
    04:00 +22°C° 0.3 mm 0 m/s 731 mmHg 96%
    05:00 +22°C° 0.1 mm 0 m/s 731 mmHg 96%
    06:00 +23°C° 0.1 mm 0 m/s 731 mmHg 95%
    07:00 +23°C° 0 mm 0 m/s 732 mmHg 93%
    08:00 +25°C° 0.2 mm 0 m/s 732 mmHg 87%
    09:00 +27°C° 0.2 mm 0 m/s 732 mmHg 80%
    10:00 +29°C° 0.2 mm 0 m/s 732 mmHg 73%
    11:00 +32°C° 0.4 mm 1 m/s 732 mmHg 70%
    12:00 +32°C° 0.4 mm 1 m/s 732 mmHg 68%
    13:00 +33°C° 0.4 mm 1 m/s 731 mmHg 65%
    14:00 +33°C° 0.6 mm 1 m/s 731 mmHg 65%
    15:00 +33°C° 0.6 mm 1 m/s 730 mmHg 65%
    16:00 +33°C° 0.6 mm 1 m/s 730 mmHg 65%
    17:00 +31°C° 0.4 mm 1 m/s 730 mmHg 72%
    18:00 +29°C° 0.4 mm 1 m/s 730 mmHg 78%
    19:00 +25°C° 0.4 mm 0 m/s 730 mmHg 84%
    20:00 +25°C° 0.1 mm 0 m/s 731 mmHg 86%
    21:00 +25°C° 0.1 mm 0 m/s 731 mmHg 88%
    22:00 +24°C° 0.1 mm 0 m/s 732 mmHg 89%
    23:00 +24°C° 0 mm 0 m/s 732 mmHg 90%

    Demain, 21 Septembre, Vendredi

    Heure Température Précipitation Vent Pression Humidité
    00:00 +24°C° 0 mm 0 m/s 732 mmHg 91%
    01:00 +23°C° 0 mm 0 m/s 732 mmHg 91%
    02:00 +23°C° 0.1 mm 0 m/s 732 mmHg 92%
    03:00 +23°C° 0.1 mm 0 m/s 731 mmHg 92%
    04:00 +23°C° 0.1 mm 0 m/s 731 mmHg 92%
    05:00 +23°C° 0 mm 0 m/s 731 mmHg 91%
    06:00 +23°C° 0 mm 0 m/s 732 mmHg 90%
    07:00 +23°C° 0 mm 0 m/s 732 mmHg 89%
    08:00 +26°C° 0 mm 0 m/s 732 mmHg 79%
    09:00 +29°C° 0 mm 0 m/s 733 mmHg 69%
    10:00 +32°C° 0 mm 0 m/s 733 mmHg 59%
    11:00 +33°C° 0 mm 0 m/s 732 mmHg 55%
    12:00 +34°C° 0 mm 0 m/s 732 mmHg 50%
    13:00 +36°C° 0 mm 0 m/s 732 mmHg 46%
    14:00 +35°C° 0.1 mm 0 m/s 731 mmHg 48%
    15:00 +34°C° 0.1 mm 0 m/s 730 mmHg 51%
    16:00 +33°C° 0.1 mm 0 m/s 729 mmHg 53%
    17:00 +31°C° 0.1 mm 0 m/s 730 mmHg 60%
    18:00 +29°C° 0.1 mm 0 m/s 730 mmHg 68%
    19:00 +27°C° 0.1 mm 0 m/s 730 mmHg 75%
    20:00 +26°C° 0 mm 0 m/s 731 mmHg 77%
    21:00 +26°C° 0 mm 0 m/s 731 mmHg 79%
    22:00 +25°C° 0 mm 0 m/s 732 mmHg 81%
    23:00 +25°C° 0.1 mm 0 m/s 732 mmHg 83%

    Après-demain, 22 Septembre, Samedi

    Heure Température Précipitation Vent Pression Humidité
    00:00 +24°C° 0.1 mm 0 m/s 732 mmHg 85%
    01:00 +24°C° 0.1 mm 0 m/s 732 mmHg 86%
    02:00 +24°C° 0.2 mm 0 m/s 732 mmHg 87%
    03:00 +23°C° 0.2 mm 0 m/s 731 mmHg 88%
    04:00 +23°C° 0.2 mm 0 m/s 731 mmHg 89%
    05:00 +23°C° 0 mm 0 m/s 731 mmHg 89%
    06:00 +24°C° 0 mm 0 m/s 732 mmHg 88%
    07:00 +24°C° 0 mm 0 m/s 732 mmHg 88%
    08:00 +27°C° 0.1 mm 0 m/s 732 mmHg 79%
    09:00 +29°C° 0.1 mm 0 m/s 733 mmHg 70%
    10:00 +32°C° 0.1 mm 0 m/s 733 mmHg 61%
    11:00 +32°C° 0.3 mm 0 m/s 733 mmHg 58%
    12:00 +35°C° 0.3 mm 1 m/s 732 mmHg 56%
    13:00 +36°C° 0.3 mm 1 m/s 731 mmHg 54%
    14:00 +35°C° 0.3 mm 1 m/s 731 mmHg 56%
    15:00 +35°C° 0.3 mm 1 m/s 730 mmHg 58%
    16:00 +34°C° 0.3 mm 1 m/s 729 mmHg 60%
    17:00 +32°C° 0.1 mm 1 m/s 729 mmHg 67%
    18:00 +30°C° 0.1 mm 1 m/s 730 mmHg 74%
    19:00 +26°C° 0.1 mm 0 m/s 730 mmHg 81%
    20:00 +26°C° 0 mm 0 m/s 731 mmHg 82%
    21:00 +25°C° 0 mm 0 m/s 732 mmHg 84%
    22:00 +25°C° 0 mm 0 m/s 732 mmHg 86%
    23:00 +24°C° 0 mm 0 m/s 732 mmHg 87%

    23 Septembre, Dimanche

    Heure Température Précipitation Vent Pression Humidité
    00:00 +24°C° 0 mm 0 m/s 732 mmHg 88%
    01:00 +24°C° 0 mm 0 m/s 732 mmHg 89%
    02:00 +23°C° 0 mm 0 m/s 732 mmHg 90%
    03:00 +23°C° 0 mm 0 m/s 731 mmHg 91%
    04:00 +23°C° 0 mm 0 m/s 731 mmHg 92%
    05:00 +23°C° 0 mm 0 m/s 732 mmHg 91%
    06:00 +24°C° 0 mm 0 m/s 732 mmHg 90%
    07:00 +24°C° 0 mm 0 m/s 732 mmHg 89%
    08:00 +26°C° 0 mm 0 m/s 733 mmHg 79%
    09:00 +29°C° 0 mm 0 m/s 733 mmHg 70%
    10:00 +33°C° 0 mm 1 m/s 734 mmHg 60%
    11:00 +34°C° 0 mm 1 m/s 733 mmHg 55%
    12:00 +35°C° 0 mm 1 m/s 732 mmHg 50%
    13:00 +36°C° 0 mm 1 m/s 731 mmHg 45%
    14:00 +36°C° 0 mm 1 m/s 731 mmHg 46%
    15:00 +36°C° 0 mm 1 m/s 730 mmHg 47%
    16:00 +35°C° 0 mm 1 m/s 729 mmHg 48%
    17:00 +33°C° 0.1 mm 1 m/s 730 mmHg 59%
    18:00 +31°C° 0.1 mm 1 m/s 730 mmHg 69%
    19:00 +28°C° 0.1 mm 1 m/s 730 mmHg 79%
    20:00 +28°C° 0 mm 1 m/s 731 mmHg 82%
    21:00 +27°C° 0 mm 1 m/s 732 mmHg 85%
    22:00 +24°C° 0 mm 0 m/s 732 mmHg 89%
    23:00 +24°C° 0 mm 0 m/s 732 mmHg 90%

    24 Septembre, Lundi

    Heure Température Précipitation Vent Pression Humidité
    00:00 +24°C° 0 mm 0 m/s 732 mmHg 92%
    01:00 +23°C° 0 mm 0 m/s 731 mmHg 93%
    02:00 +23°C° 0 mm 0 m/s 731 mmHg 94%
    03:00 +23°C° 0 mm 0 m/s 731 mmHg 95%
    04:00 +23°C° 0 mm 0 m/s 731 mmHg 96%
    05:00 +23°C° 0 mm 0 m/s 731 mmHg 95%
    06:00 +23°C° 0 mm 0 m/s 732 mmHg 93%
    07:00 +24°C° 0 mm 0 m/s 732 mmHg 92%
    08:00 +26°C° 0 mm 0 m/s 732 mmHg 83%
    09:00 +28°C° 0 mm 0 m/s 733 mmHg 74%
    10:00 +32°C° 0 mm 1 m/s 733 mmHg 65%
    11:00 +33°C° 0.2 mm 1 m/s 732 mmHg 62%
    12:00 +34°C° 0.2 mm 1 m/s 732 mmHg 59%
    13:00 +34°C° 0.2 mm 1 m/s 731 mmHg 56%
    14:00 +34°C° 0.3 mm 1 m/s 730 mmHg 57%
    15:00 +34°C° 0.3 mm 1 m/s 729 mmHg 58%
    16:00 +34°C° 0.3 mm 1 m/s 729 mmHg 60%
    17:00 +32°C° 0.4 mm 1 m/s 729 mmHg 67%
    18:00 +30°C° 0.4 mm 1 m/s 729 mmHg 75%
    19:00 +28°C° 0.4 mm 1 m/s 730 mmHg 83%
    20:00 +27°C° 0.2 mm 1 m/s 730 mmHg 85%
    21:00 +27°C° 0.2 mm 1 m/s 731 mmHg 87%
    22:00 +26°C° 0.2 mm 1 m/s 732 mmHg 90%
    23:00 +24°C° 0 mm 0 m/s 731 mmHg 91%

    25 Septembre, Mardi

    Heure Température Précipitation Vent Pression Humidité
    00:00 +23°C° 0 mm 0 m/s 731 mmHg 92%
    01:00 +23°C° 0 mm 0 m/s 731 mmHg 93%
    02:00 +23°C° 0 mm 0 m/s 730 mmHg 93%
    03:00 +23°C° 0 mm 0 m/s 730 mmHg 93%
    04:00 +23°C° 0 mm 0 m/s 730 mmHg 94%
    05:00 +23°C° 0 mm 0 m/s 730 mmHg 93%
    06:00 +23°C° 0 mm 0 m/s 731 mmHg 92%
    07:00 +23°C° 0 mm 0 m/s 731 mmHg 92%
    08:00 +26°C° 0 mm 0 m/s 731 mmHg 82%
    09:00 +28°C° 0 mm 0 m/s 732 mmHg 71%
    10:00 +32°C° 0 mm 1 m/s 732 mmHg 61%
    11:00 +33°C° 0 mm 1 m/s 731 mmHg 57%
    12:00 +34°C° 0 mm 1 m/s 730 mmHg 53%
    13:00 +35°C° 0 mm 1 m/s 730 mmHg 49%
    14:00 +35°C° 0.1 mm 1 m/s 729 mmHg 52%
    15:00 +34°C° 0.1 mm 1 m/s 728 mmHg 54%
    16:00 +34°C° 0.1 mm 1 m/s 728 mmHg 57%
    17:00 +32°C° 0.2 mm 1 m/s 728 mmHg 64%
    18:00 +30°C° 0.2 mm 1 m/s 728 mmHg 70%
    19:00 +28°C° 0.2 mm 1 m/s 729 mmHg 77%
    20:00 +28°C° 0 mm 1 m/s 729 mmHg 80%
    21:00 +27°C° 0 mm 1 m/s 730 mmHg 82%
    22:00 +27°C° 0 mm 1 m/s 730 mmHg 85%
    23:00 +24°C° 0 mm 0 m/s 730 mmHg 86%
    Voir plus